TimeEST,TemperatureF,Dew PointF,Humidity,Sea Level PressureIn,VisibilityMPH,Wind Direction,Wind SpeedMPH,Gust SpeedMPH,PrecipitationIn,Events,Conditions,WindDirDegrees,DateUTC
12:16 AM,35.6,19.4,52,30.21,10.0,SSE,6.9,-,N/A,,Scattered Clouds,160,2012-01-09 05:16:00
12:36 AM,35.6,17.6,48,30.20,10.0,SSE,5.8,-,N/A,,Clear,160,2012-01-09 05:36:00
12:56 AM,35.6,19.4,52,30.20,10.0,South,6.9,-,N/A,,Scattered Clouds,170,2012-01-09 05:56:00
1:16 AM,35.6,19.4,52,30.19,10.0,SSE,6.9,-,N/A,,Scattered Clouds,160,2012-01-09 06:16:00
1:36 AM,35.6,21.2,56,30.19,10.0,SSE,8.1,-,N/A,,Mostly Cloudy,160,2012-01-09 06:36:00
1:57 AM,35.6,21.2,56,30.19,10.0,SSE,6.9,-,N/A,,Scattered Clouds,150,2012-01-09 06:57:00
2:16 AM,33.8,21.2,60,30.19,10.0,SE,5.8,-,N/A,,Clear,140,2012-01-09 07:16:00
2:36 AM,33.8,21.2,60,30.19,10.0,SSE,6.9,-,N/A,,Clear,150,2012-01-09 07:36:00
2:56 AM,33.8,21.2,60,30.19,10.0,SE,6.9,-,N/A,,Mostly Cloudy,140,2012-01-09 07:56:00
3:16 AM,33.8,21.2,60,30.18,10.0,SE,6.9,-,N/A,,Overcast,140,2012-01-09 08:16:00
3:36 AM,32.0,21.2,64,30.18,10.0,SE,6.9,-,N/A,,Overcast,130,2012-01-09 08:36:00
3:56 AM,32.0,21.2,64,30.17,10.0,SE,6.9,-,N/A,,Overcast,130,2012-01-09 08:56:00
4:16 AM,30.2,23.0,75,30.17,10.0,East,5.8,-,N/A,,Overcast,100,2012-01-09 09:16:00
4:36 AM,28.4,23.0,80,30.17,10.0,East,6.9,-,N/A,,Overcast,90,2012-01-09 09:36:00
4:56 AM,28.4,23.0,80,30.17,10.0,East,5.8,-,N/A,,Overcast,100,2012-01-09 09:56:00
5:16 AM,28.4,23.0,80,30.17,10.0,East,5.8,-,N/A,,Overcast,90,2012-01-09 10:16:00
5:36 AM,28.4,23.0,80,30.18,10.0,East,5.8,-,N/A,,Overcast,90,2012-01-09 10:36:00
5:57 AM,28.4,23.0,80,30.18,10.0,East,4.6,-,N/A,,Overcast,90,2012-01-09 10:57:00
6:16 AM,28.4,23.0,80,30.19,10.0,East,4.6,-,N/A,,Overcast,80,2012-01-09 11:16:00
6:37 AM,26.6,23.0,86,30.19,10.0,East,5.8,-,N/A,,Overcast,80,2012-01-09 11:37:00
7:16 AM,26.6,24.8,93,30.18,10.0,ENE,9.2,-,N/A,,Overcast,70,2012-01-09 12:16:00
7:36 AM,26.6,24.8,93,30.19,10.0,ENE,6.9,-,N/A,,Overcast,60,2012-01-09 12:36:00
7:56 AM,26.6,24.8,93,30.19,10.0,NNE,4.6,-,N/A,,Overcast,30,2012-01-09 12:56:00
8:16 AM,26.6,24.8,93,30.18,5.0,ENE,4.6,-,N/A,Snow,Light Snow,70,2012-01-09 13:16:00
8:36 AM,26.6,24.8,93,30.18,5.0,Calm,Calm,-,N/A,Snow,Light Snow,0,2012-01-09 13:36:00
8:57 AM,28.4,26.6,93,30.17,5.0,SE,3.5,-,N/A,Snow,Light Snow,130,2012-01-09 13:57:00
9:16 AM,28.4,26.6,93,30.17,7.0,SE,4.6,-,N/A,,Overcast,140,2012-01-09 14:16:00
9:36 AM,26.6,26.6,100,30.16,5.0,SSE,6.9,-,N/A,,Overcast,160,2012-01-09 14:36:00
9:57 AM,26.6,26.6,100,30.16,1.2,South,6.9,-,N/A,,Overcast,170,2012-01-09 14:57:00
10:16 AM,28.4,28.4,100,30.15,1.0,South,9.2,-,N/A,,Overcast,170,2012-01-09 15:16:00
11:17 AM,28.4,28.4,100,30.14,2.5,SSW,5.8,-,N/A,,Overcast,200,2012-01-09 16:17:00
11:36 AM,28.4,28.4,100,30.13,3.0,South,8.1,-,N/A,,Overcast,190,2012-01-09 16:36:00
11:56 AM,28.4,28.4,100,30.11,2.0,South,8.1,-,N/A,,Overcast,190,2012-01-09 16:56:00
12:16 PM,30.2,30.2,100,30.09,2.0,South,8.1,-,N/A,,Overcast,180,2012-01-09 17:16:00
12:36 PM,28.4,28.4,100,30.07,0.2,South,6.9,-,N/A,,Overcast,170,2012-01-09 17:36:00
12:56 PM,28.4,28.4,100,30.08,0.2,NW,6.9,-,N/A,,Overcast,310,2012-01-09 17:56:00
1:17 PM,28.4,28.4,100,30.07,0.2,SSW,3.5,-,0.02,Snow,Snow,200,2012-01-09 18:17:00
1:36 PM,30.2,30.2,100,30.06,0.5,SSW,5.8,-,0.03,Snow,Light Snow,200,2012-01-09 18:36:00
1:56 PM,32.0,32.0,100,30.06,1.5,SW,5.8,-,N/A,Snow,Light Snow,220,2012-01-09 18:56:00
2:16 PM,33.8,33.8,100,30.05,2.0,SW,9.2,-,0.01,Snow,Light Snow,230,2012-01-09 19:16:00
2:36 PM,32.0,32.0,100,30.05,3.0,SW,8.1,-,0.03,Snow,Light Snow,230,2012-01-09 19:36:00
2:58 PM,33.8,33.8,100,30.03,5.0,SW,9.2,-,0.03,Rain,Rain,220,2012-01-09 19:58:00
3:16 PM,33.8,33.8,100,30.04,10.0,SW,11.5,-,0.04,,Drizzle,230,2012-01-09 20:16:00
3:36 PM,33.8,33.8,100,30.04,10.0,WSW,9.2,-,0.04,,Overcast,240,2012-01-09 20:36:00
3:57 PM,32.0,32.0,100,30.04,0.2,SW,9.2,-,N/A,Rain,Light Rain,230,2012-01-09 20:57:00
4:16 PM,33.8,33.8,100,30.04,7.0,WSW,11.5,-,N/A,,Overcast,240,2012-01-09 21:16:00
4:37 PM,33.8,33.8,100,30.03,10.0,WSW,10.4,-,N/A,,Overcast,240,2012-01-09 21:37:00
4:56 PM,33.8,33.8,100,30.02,10.0,WSW,10.4,-,N/A,,Overcast,240,2012-01-09 21:56:00
5:16 PM,33.8,33.8,100,30.01,0.2,WSW,10.4,-,N/A,Fog,Fog,250,2012-01-09 22:16:00
5:36 PM,33.8,33.8,100,30.01,0.2,WSW,9.2,-,N/A,Fog,Fog,240,2012-01-09 22:36:00
5:59 PM,32.0,32.0,100,30.02,0.2,West,6.9,-,N/A,Fog,Fog,260,2012-01-09 22:59:00
6:17 PM,32.0,32.0,100,30.01,0.2,WSW,10.4,-,N/A,Fog,Fog,250,2012-01-09 23:17:00
6:36 PM,32.0,32.0,100,30.01,0.2,West,10.4,-,N/A,Snow,Light Snow,260,2012-01-09 23:36:00
6:56 PM,32.0,32.0,100,30.01,0.2,West,9.2,-,N/A,Snow,Light Snow,260,2012-01-09 23:56:00
7:16 PM,32.0,32.0,100,30.01,0.2,WSW,12.7,-,N/A,Snow,Light Snow,250,2012-01-10 00:16:00
7:36 PM,33.8,33.8,100,30.01,0.2,West,15.0,18.4,N/A,Snow,Snow,260,2012-01-10 00:36:00
7:56 PM,33.8,33.8,100,30.00,0.2,West,16.1,23.0,N/A,Snow,Snow,270,2012-01-10 00:56:00
8:19 PM,33.8,33.8,100,29.99,0.2,West,15.0,21.9,N/A,Snow,Snow,270,2012-01-10 01:19:00
8:36 PM,33.8,33.8,100,29.99,0.2,West,17.3,-,N/A,Snow,Snow,270,2012-01-10 01:36:00
8:56 PM,33.8,33.8,100,29.99,0.2,West,17.3,-,N/A,Snow,Heavy Snow,270,2012-01-10 01:56:00
9:16 PM,33.8,33.8,100,29.99,0.2,West,16.1,23.0,N/A,Snow,Heavy Snow,270,2012-01-10 02:16:00
9:36 PM,33.8,33.8,100,29.99,0.2,West,17.3,-,N/A,Snow,Heavy Snow,270,2012-01-10 02:36:00
9:56 PM,33.8,33.8,100,29.99,0.2,West,15.0,-,N/A,Snow,Heavy Snow,280,2012-01-10 02:56:00
10:16 PM,32.0,32.0,100,29.99,0.2,West,16.1,21.9,N/A,Snow,Light Snow,280,2012-01-10 03:16:00
10:36 PM,32.0,32.0,100,29.99,0.2,West,17.3,23.0,N/A,Snow,Snow,280,2012-01-10 03:36:00
10:57 PM,30.2,30.2,100,29.99,0.2,West,18.4,25.3,N/A,Snow,Light Snow,280,2012-01-10 03:57:00
11:16 PM,30.2,30.2,100,29.98,0.2,West,16.1,21.9,N/A,Snow,Light Snow,280,2012-01-10 04:16:00
11:36 PM,30.2,30.2,100,29.97,10.0,West,17.3,23.0,N/A,,Scattered Clouds,270,2012-01-10 04:36:00
11:56 PM,30.2,30.2,100,29.97,10.0,West,19.6,25.3,N/A,,Clear,280,2012-01-10 04:56:00